Regional Weather Roundup
Issued by NWS

Home | Current Version | Previous Version | Text Only | Print | Product List | Glossary Off
Versions: 1 2 3 4 5 6 7 8 9 10 11 12 13 14 15 16 17 18 19 20 21 22 23 24 25 26 27 28 29 30 31 32 33 34 35 36 37 38 39 40 41 42 43 44 45 46 47 48 49 50

000
ASUS43 KOAX 280710
RWRNE

WEATHER ROUNDUP FOR NEBRASKA
NATIONAL WEATHER SERVICE OMAHA NE
200 AM CDT SUN MAY 28 2017

NOTES: SATELLITE DATA IS BEING USED TO AUGMENT CLOUD COVER ABOVE
       12000 FEET.
       "FAIR" INDICATES FEW OR NO CLOUDS BELOW 12,000 FEET WITH NO
       SIGNIFICANT WEATHER AND/OR OBSTRUCTIONS TO VISIBILITY.

  * THESE STATIONS DO NOT REPORT WEATHER SUCH AS RAIN...SNOW OR FOG.

NEZ001>004-019>022-054>056-280800-
NEBRASKA PANHANDLE

CITY           SKY/WX    TMP DP  RH WIND       PRES   REMARKS
SCOTTSBLUFF    CLEAR     47  40  76 CALM      30.15S
ALLIANCE       CLEAR     41  39  93 W8        30.11S
CHADRON        PTCLDY    52  41  66 W6        30.09S
GORDON         FAIR      48  42  79 W8        30.07S
KIMBALL        CLEAR     44  38  78 W8        30.20S
SIDNEY         CLEAR     44  40  85 W10       30.16F
$$

NEZ057>060-069>072-079>082-280800-
SOUTHWEST NEBRASKA

CITY           SKY/WX    TMP DP  RH WIND       PRES   REMARKS
NORTH PLATTE   CLEAR     45  44  97 W5        30.07F
IMPERIAL       CLEAR     50  42  74 W12       30.11F
LEXINGTON      CLEAR     49  47  91 NW6       30.05S
MCCOOK         CLEAR     49  49 100 SW7       30.07F
OGALLALA       CLEAR     46  43  88 W6        30.11S
$$

NEZ005>010-023>029-035>040-094-280800-
NORTH CENTRAL NEBRASKA

CITY           SKY/WX    TMP DP  RH WIND       PRES   REMARKS
VALENTINE      PTCLDY    53  44  71 W7        30.01S
AINSWORTH      PTCLDY    55  46  71 W10       29.99F
BROKEN BOW     CLEAR     55  50  83 W14       30.02F
O`NEILL        PTCLDY    54  46  74 W9        29.96F
ORD            CLEAR     50  45  83 NW7       29.98F
THEDFORD       MOCLDY    51  44  77 W6        30.05S
$$

NEZ041-046>049-061>064-073>077-083>087-280800-
SOUTH CENTRAL NEBRASKA

CITY           SKY/WX    TMP DP  RH WIND       PRES   REMARKS
GRAND ISLAND   CLEAR     53  51  93 W8        29.99F
AURORA         CLEAR     53  51  92 W7        29.98F
HASTINGS       CLEAR     55  50  83 W8        30.01S
HEBRON         MOCLDY    60  54  79 NW3       29.99R
HOLDREGE       CLEAR     54  49  83 W9        30.02F
KEARNEY *      CLEAR     55  48  76 W8        30.02F
YORK           PTCLDY    55  52  88 W9        29.98R
$$

NEZ011>018-030>034-042>045-280800-
NORTHEAST NEBRASKA

CITY           SKY/WX    TMP DP  RH WIND       PRES   REMARKS
NORFOLK        CLEAR     51  48  89 W5        29.93F
ALBION         CLEAR     54  49  82 NW6       29.96F
BLAIR          CLEAR     58  51  77 CALM      29.92F
FREMONT        PTCLDY    55  50  84 W8        29.93F
TEKAMAH        PTCLDY    56  49  77 W6        29.90F
WAYNE          CLEAR     55  54  95 SW6       29.92F
$$

NEZ050>053-065>068-078-088>093-280800-
SOUTHEAST NEBRASKA

CITY           SKY/WX    TMP DP  RH WIND       PRES   REMARKS
LINCOLN        PTCLDY    60  51  72 W3        29.95F
OMAHA EPPLEY   PTCLDY    58  52  80 NE3       29.92S
BEATRICE       CLEAR     57  55  91 NW3       29.97R
FALLS CITY     MOCLDY    58  56  93 CALM      29.92S
NEBRASKA CITY  CLEAR     60  54  80 W3        29.95R
PLATTSMOUTH    CLEAR     58  55  88 NW3       29.93S
$$

NEZ044-045-051>053-067-280800-
OMAHA AREA

CITY           SKY/WX    TMP DP  RH WIND       PRES   REMARKS
OMAHA EPPLEY   PTCLDY    58  52  80 NE3       29.92S
BLAIR          CLEAR     58  51  77 CALM      29.92F
FREMONT        PTCLDY    55  50  84 W8        29.93F
MILLARD        CLEAR     60  54  79 CALM      29.93S
OFFUTT AFB     CLEAR     56  52  86 NW6       29.91S
PLATTSMOUTH    CLEAR     58  55  88 NW3       29.93S
WAHOO          FAIR      57  51  78 NW9       29.94S
$$




USA.gov is the U.S. government's official web portal to all federal, state and local government web resources and services.